TimeCDT,TemperatureF,Dew PointF,Humidity,Sea Level PressureIn,VisibilityMPH,Wind Direction,Wind SpeedMPH,Gust SpeedMPH,PrecipitationIn,Events,Conditions,WindDirDegrees,DateUTC
12:15 AM,21.2,15.8,80,30.10,10.0,Calm,Calm,-,N/A,,Clear,0,2014-03-17 05:15:00
12:35 AM,23.0,15.8,74,30.09,10.0,Calm,Calm,-,N/A,,Clear,0,2014-03-17 05:35:00
12:55 AM,23.0,15.8,74,30.07,10.0,SSE,4.6,-,N/A,,Clear,150,2014-03-17 05:55:00
1:15 AM,23.0,17.6,80,30.06,10.0,SSE,6.9,-,N/A,,Clear,150,2014-03-17 06:15:00
1:35 AM,23.0,15.8,74,30.05,10.0,SSE,9.2,-,N/A,,Clear,150,2014-03-17 06:35:00
1:55 AM,23.0,15.8,74,30.05,10.0,SSE,6.9,-,N/A,,Clear,160,2014-03-17 06:55:00
2:15 AM,23.0,15.8,74,30.05,10.0,SSE,6.9,-,N/A,,Clear,150,2014-03-17 07:15:00
2:35 AM,23.0,15.8,74,30.05,10.0,SSE,6.9,-,N/A,,Clear,160,2014-03-17 07:35:00
2:55 AM,23.0,15.8,74,30.03,10.0,South,3.5,-,N/A,,Clear,170,2014-03-17 07:55:00
3:15 AM,24.8,17.6,74,30.01,10.0,SSE,10.4,-,N/A,,Clear,150,2014-03-17 08:15:00
3:35 AM,24.8,17.6,74,29.98,10.0,SSE,13.8,-,N/A,,Clear,150,2014-03-17 08:35:00
3:55 AM,24.8,17.6,74,29.98,10.0,SSE,12.7,-,N/A,,Clear,160,2014-03-17 08:55:00
4:15 AM,24.8,17.6,74,29.97,10.0,South,12.7,-,N/A,,Clear,170,2014-03-17 09:15:00
4:30 AM,24.8,17.6,74,29.96,10.0,South,11.5,18.4,N/A,,Clear,170,2014-03-17 09:30:00
4:55 AM,24.8,17.6,74,29.96,10.0,South,10.4,-,N/A,,Clear,170,2014-03-17 09:55:00
5:15 AM,23.0,17.6,80,29.95,10.0,South,10.4,-,N/A,,Clear,170,2014-03-17 10:15:00
5:35 AM,23.0,17.6,80,29.93,10.0,South,9.2,-,N/A,,Clear,180,2014-03-17 10:35:00
5:55 AM,23.0,17.6,80,29.92,10.0,South,11.5,-,N/A,,Clear,180,2014-03-17 10:55:00
6:15 AM,23.0,17.6,80,29.90,10.0,South,10.4,-,N/A,,Clear,170,2014-03-17 11:15:00
6:35 AM,23.0,17.6,80,29.91,10.0,South,8.1,15.0,N/A,,Clear,170,2014-03-17 11:35:00
6:55 AM,23.0,17.6,80,29.89,10.0,SSE,9.2,-,N/A,,Clear,160,2014-03-17 11:55:00
7:15 AM,23.0,17.6,80,29.91,10.0,South,6.9,12.7,N/A,,Clear,180,2014-03-17 12:15:00
7:35 AM,23.0,17.6,80,29.89,10.0,South,10.4,-,N/A,,Clear,170,2014-03-17 12:35:00
7:55 AM,23.0,17.6,80,29.87,10.0,South,11.5,-,N/A,,Clear,180,2014-03-17 12:55:00
8:15 AM,24.8,17.6,74,29.87,10.0,South,10.4,-,N/A,,Clear,180,2014-03-17 13:15:00
8:35 AM,24.8,17.6,74,29.85,10.0,South,10.4,19.6,N/A,,Clear,170,2014-03-17 13:35:00
8:55 AM,28.4,19.4,69,29.85,10.0,South,12.7,-,N/A,,Clear,180,2014-03-17 13:55:00
9:15 AM,28.4,19.4,69,29.83,10.0,South,15.0,21.9,N/A,,Clear,180,2014-03-17 14:15:00
9:35 AM,30.2,19.4,64,29.82,10.0,South,16.1,-,N/A,,Clear,180,2014-03-17 14:35:00
9:55 AM,32.0,19.4,60,29.82,10.0,South,19.6,-,N/A,,Clear,190,2014-03-17 14:55:00
10:15 AM,33.8,21.2,60,29.79,10.0,South,17.3,-,N/A,,Clear,180,2014-03-17 15:15:00
10:35 AM,35.6,21.2,56,29.78,10.0,South,18.4,25.3,N/A,,Clear,180,2014-03-17 15:35:00
10:55 AM,37.4,21.2,52,29.77,10.0,South,16.1,24.2,N/A,,Clear,190,2014-03-17 15:55:00
11:15 AM,39.2,21.2,49,29.76,10.0,South,19.6,-,N/A,,Clear,170,2014-03-17 16:15:00
11:35 AM,41.0,21.2,45,29.74,10.0,South,15.0,20.7,N/A,,Clear,180,2014-03-17 16:35:00
11:55 AM,41.0,21.2,45,29.73,10.0,South,15.0,23.0,N/A,,Clear,170,2014-03-17 16:55:00
12:15 PM,44.6,23.0,43,29.71,10.0,South,17.3,-,N/A,,Clear,170,2014-03-17 17:15:00
12:35 PM,44.6,23.0,43,29.70,10.0,South,19.6,-,N/A,,Clear,180,2014-03-17 17:35:00
12:55 PM,44.6,23.0,43,29.69,10.0,South,18.4,25.3,N/A,,Clear,170,2014-03-17 17:55:00
1:15 PM,46.4,23.0,40,29.67,10.0,South,20.7,-,N/A,,Clear,170,2014-03-17 18:15:00
1:35 PM,46.4,23.0,40,29.66,10.0,SSE,19.6,28.8,N/A,,Clear,160,2014-03-17 18:35:00
1:50 PM,46.4,23.0,40,29.64,10.0,South,19.6,26.5,N/A,,Clear,180,2014-03-17 18:50:00
2:15 PM,48.2,24.8,40,29.63,10.0,South,20.7,29.9,N/A,,Clear,180,2014-03-17 19:15:00
2:35 PM,50.0,24.8,37,29.61,10.0,South,25.3,-,N/A,,Clear,180,2014-03-17 19:35:00
2:55 PM,51.8,24.8,35,29.60,10.0,South,21.9,28.8,N/A,,Clear,180,2014-03-17 19:55:00
3:15 PM,51.8,24.8,35,29.59,10.0,South,23.0,32.2,N/A,,Clear,170,2014-03-17 20:15:00
3:35 PM,51.8,24.8,35,29.58,10.0,South,23.0,32.2,N/A,,Clear,190,2014-03-17 20:35:00
3:55 PM,53.6,24.8,33,29.57,10.0,South,21.9,31.1,N/A,,Clear,180,2014-03-17 20:55:00
4:15 PM,55.4,24.8,31,29.56,10.0,South,25.3,-,N/A,,Clear,170,2014-03-17 21:15:00
4:35 PM,53.6,24.8,33,29.55,10.0,South,24.2,31.1,N/A,,Clear,180,2014-03-17 21:35:00
4:55 PM,53.6,26.6,35,29.54,10.0,South,19.6,31.1,N/A,,Clear,180,2014-03-17 21:55:00
5:15 PM,53.6,24.8,33,29.54,10.0,South,23.0,-,N/A,,Clear,170,2014-03-17 22:15:00
5:35 PM,51.8,26.6,38,29.54,10.0,South,16.1,27.6,N/A,,Clear,170,2014-03-17 22:35:00
5:55 PM,53.6,26.6,35,29.53,10.0,South,17.3,-,N/A,,Clear,170,2014-03-17 22:55:00
6:15 PM,51.8,26.6,38,29.53,10.0,South,17.3,25.3,N/A,,Clear,170,2014-03-17 23:15:00
6:35 PM,51.8,26.6,38,29.52,10.0,SSE,15.0,21.9,N/A,,Clear,160,2014-03-17 23:35:00
6:55 PM,50.0,26.6,40,29.51,10.0,SSE,16.1,-,N/A,,Clear,160,2014-03-17 23:55:00
7:15 PM,50.0,26.6,40,29.51,10.0,SSE,12.7,18.4,N/A,,Clear,160,2014-03-18 00:15:00
7:35 PM,50.0,26.6,40,29.51,10.0,SSE,12.7,-,N/A,,Clear,150,2014-03-18 00:35:00
7:55 PM,50.0,24.8,37,29.51,10.0,SSE,16.1,-,N/A,,Clear,160,2014-03-18 00:55:00
8:15 PM,48.2,24.8,40,29.51,10.0,SSE,16.1,-,N/A,,Clear,160,2014-03-18 01:15:00
8:35 PM,48.2,26.6,43,29.51,10.0,SSE,16.1,-,N/A,,Clear,160,2014-03-18 01:35:00
8:55 PM,46.4,26.6,46,29.52,10.0,SSE,15.0,21.9,N/A,,Clear,160,2014-03-18 01:55:00
9:15 PM,46.4,26.6,46,29.53,10.0,South,12.7,21.9,N/A,,Clear,170,2014-03-18 02:15:00
9:35 PM,46.4,26.6,46,29.54,-9999.0,South,11.5,18.4,N/A,,Clear,170,2014-03-18 02:35:00
9:55 PM,44.6,28.4,53,29.54,10.0,South,12.7,18.4,N/A,,Clear,180,2014-03-18 02:55:00
10:15 PM,46.4,28.4,50,29.52,10.0,SSE,19.6,-,N/A,,Clear,160,2014-03-18 03:15:00
10:35 PM,46.4,28.4,50,29.53,10.0,South,17.3,-,N/A,,Clear,170,2014-03-18 03:35:00
10:55 PM,44.6,28.4,53,29.53,10.0,South,11.5,19.6,N/A,,Clear,170,2014-03-18 03:55:00
11:15 PM,44.6,28.4,53,29.54,10.0,South,13.8,-,N/A,,Clear,180,2014-03-18 04:15:00
11:35 PM,44.6,30.2,57,29.54,10.0,South,16.1,23.0,N/A,,Clear,170,2014-03-18 04:35:00
11:55 PM,44.6,30.2,57,29.54,10.0,SSE,18.4,25.3,N/A,,Clear,160,2014-03-18 04:55:00